| time (UTC) | temp C | wind direction | speed KPH | gust KPH | rain 1hr cm | rain 24hr cm | rain mn cm | humidity % | barometer mb |
| 20260503220746 | 19 | 184 | 9.7 | 22.5 | 0.00 | 0.03 | 0.03 | 43 | 1004.6 |
| 20260503220246 | 19 | 236 | 11.3 | 30.6 | 0.00 | 0.03 | 0.03 | 43 | 1004.6 |
| 20260503215747 | 19 | 210 | 12.9 | 30.6 | 0.00 | 0.03 | 0.03 | 43 | 1004.6 |
| 20260503215448 | 18 | 198 | 14.5 | 29.0 | 0.00 | 0.03 | 0.03 | 44 | 1004.6 |
| 20260503215335 | 19 | 256 | 12.9 | 25.7 | 0.00 | 0.03 | 0.03 | 43 | 1004.6 |
| 20260503214247 | 18 | 233 | 14.5 | 29.0 | 0.00 | 0.03 | 0.03 | 43 | 1004.7 |
| 20260503214011 | 18 | 182 | 14.5 | 27.4 | 0.00 | 0.03 | 0.03 | 44 | 1004.7 |
| 20260503213243 | 19 | 200 | 14.5 | 25.7 | 0.00 | 0.03 | 0.03 | 43 | 1004.9 |
| 20260503212743 | 19 | 180 | 14.5 | 29.0 | 0.00 | 0.03 | 0.03 | 43 | 1004.8 |
| 20260503212245 | 18 | 258 | 14.5 | 29.0 | 0.00 | 0.03 | 0.03 | 43 | 1004.9 |
| 20260503212008 | 18 | 230 | 14.5 | 25.7 | 0.00 | 0.03 | 0.03 | 42 | 1004.8 |
| 20260503211243 | 18 | 233 | 14.5 | 25.7 | 0.00 | 0.03 | 0.03 | 43 | 1004.8 |
| 20260503210745 | 18 | 195 | 12.9 | 22.5 | 0.00 | 0.03 | 0.03 | 45 | 1004.8 |
| 20260503210243 | 18 | 199 | 12.9 | 27.4 | 0.00 | 0.03 | 0.03 | 46 | 1005.0 |
| 20260503205744 | 18 | 249 | 14.5 | 27.4 | 0.00 | 0.03 | 0.03 | 46 | 1005.2 |
| 20260503205244 | 18 | 199 | 14.5 | 27.4 | 0.00 | 0.03 | 0.03 | 47 | 1005.2 |
| 20260503204744 | 18 | 205 | 12.9 | 24.1 | 0.00 | 0.03 | 0.03 | 48 | 1005.3 |
| 20260503204504 | 18 | 201 | 12.9 | 22.5 | 0.00 | 0.03 | 0.03 | 48 | 1005.3 |
| 20260503203742 | 17 | 188 | 12.9 | 24.1 | 0.00 | 0.03 | 0.03 | 49 | 1005.5 |
| 20260503203242 | 17 | 180 | 12.9 | 24.1 | 0.03 | 0.03 | 0.03 | 50 | 1005.5 |
| 20260503202742 | 17 | 172 | 12.9 | 32.2 | 0.03 | 0.03 | 0.03 | 50 | 1005.9 |
| 20260503202243 | 17 | 231 | 14.5 | 32.2 | 0.03 | 0.03 | 0.03 | 50 | 1006.0 |
| 20260503201742 | 17 | 165 | 16.1 | 32.2 | 0.03 | 0.03 | 0.03 | 49 | 1006.0 |
| 20260503201242 | 17 | 171 | 14.5 | 32.2 | 0.03 | 0.03 | 0.03 | 49 | 1006.1 |
| 20260503201009 | 17 | 197 | 12.9 | 29.0 | 0.03 | 0.03 | 0.03 | 49 | 1006.2 |
| 20260503200243 | 17 | 213 | 14.5 | 29.0 | 0.03 | 0.03 | 0.03 | 47 | 1006.3 |
| 20260503195743 | 17 | 189 | 14.5 | 29.0 | 0.03 | 0.03 | 0.03 | 48 | 1006.2 |
| 20260503195243 | 17 | 224 | 14.5 | 29.0 | 0.03 | 0.03 | 0.03 | 47 | 1006.3 |
| 20260503194739 | 17 | 227 | 14.5 | 29.0 | 0.03 | 0.03 | 0.03 | 46 | 1006.4 |
| 20260503194239 | 17 | 218 | 14.5 | 29.0 | 0.03 | 0.03 | 0.03 | 44 | 1006.3 |
| 20260503193741 | 18 | 264 | 14.5 | 27.4 | 0.03 | 0.03 | 0.03 | 44 | 1006.3 |
| 20260503193459 | 18 | 233 | 14.5 | 30.6 | 0.00 | 0.00 | 0.00 | 44 | 1006.3 |
| 20260503192740 | 17 | 186 | 16.1 | 30.6 | 0.00 | 0.00 | 0.00 | 44 | 1006.3 |
| 20260503192242 | 18 | 208 | 16.1 | 25.7 | 0.00 | 0.00 | 0.00 | 43 | 1006.2 |
| 20260503191743 | 18 | 184 | 14.5 | 30.6 | 0.00 | 0.00 | 0.00 | 42 | 1006.2 |
| 20260503191241 | 17 | 210 | 16.1 | 30.6 | 0.00 | 0.00 | 0.00 | 43 | 1006.4 |
| 20260503191003 | 18 | 215 | 14.5 | 30.6 | 0.00 | 0.00 | 0.00 | 42 | 1006.3 |
| 20260503190241 | 18 | 275 | 14.5 | 22.5 | 0.00 | 0.00 | 0.00 | 43 | 1006.7 |
| 20260503185741 | 17 | 212 | 14.5 | 22.5 | 0.00 | 0.00 | 0.00 | 43 | 1006.5 |
| 20260503185241 | 17 | 163 | 12.9 | 20.9 | 0.00 | 0.00 | 0.00 | 44 | 1006.7 |
| 20260503184740 | 17 | 157 | 12.9 | 24.1 | 0.00 | 0.00 | 0.00 | 44 | 1006.7 |
| 20260503184239 | 17 | 173 | 12.9 | 24.1 | 0.00 | 0.00 | 0.00 | 44 | 1006.5 |
| 20260503183739 | 17 | 152 | 12.9 | 22.5 | 0.00 | 0.00 | 0.00 | 46 | 1006.9 |
| 20260503183239 | 17 | 157 | 12.9 | 20.9 | 0.00 | 0.00 | 0.00 | 45 | 1007.0 |
| 20260503182737 | 17 | 205 | 14.5 | 25.7 | 0.00 | 0.00 | 0.00 | 47 | 1007.2 |
| 20260503182718 | 16 | 217 | 16.1 | 43.5 | 0.00 | 0.00 | 0.00 | 48 | 1007.2 |
| 20260503181738 | 16 | 181 | 14.5 | 43.5 | 0.00 | 0.00 | 0.00 | 49 | 1007.4 |
| 20260503181459 | 16 | 209 | 12.9 | 25.7 | 0.00 | 0.00 | 0.00 | 50 | 1007.4 |
| 20260503180738 | 16 | 194 | 14.5 | 29.0 | 0.00 | 0.00 | 0.00 | 51 | 1007.5 |
| 20260503180238 | 16 | 192 | 16.1 | 29.0 | 0.00 | 0.00 | 0.00 | 51 | 1007.6 |
| 20260503175739 | 15 | 171 | 14.5 | 24.1 | 0.00 | 0.00 | 0.00 | 52 | 1007.6 |
| 20260503175239 | 15 | 176 | 14.5 | 30.6 | 0.00 | 0.00 | 0.00 | 53 | 1007.8 |
| 20260503175218 | 15 | 182 | 16.1 | 33.8 | 0.00 | 0.00 | 0.00 | 53 | 1007.9 |
| 20260503174234 | 15 | 177 | 17.7 | 33.8 | 0.00 | 0.00 | 0.00 | 53 | 1007.6 |
| 20260503173733 | 15 | 177 | 16.1 | 25.7 | 0.00 | 0.00 | 0.00 | 53 | 1008.0 |
| 20260503173233 | 15 | 197 | 12.9 | 24.1 | 0.00 | 0.00 | 0.00 | 53 | 1008.2 |
| 20260503172734 | 14 | 209 | 11.3 | 19.3 | 0.00 | 0.00 | 0.00 | 54 | 1008.3 |
| 20260503172234 | 13 | 141 | 12.9 | 24.1 | 0.00 | 0.00 | 0.00 | 57 | 1008.5 |
| 20260503171733 | 13 | 190 | 12.9 | 24.1 | 0.00 | 0.00 | 0.00 | 55 | 1008.3 |
| 20260503171236 | 13 | 160 | 12.9 | 24.1 | 0.00 | 0.00 | 0.00 | 56 | 1008.5 |
| 20260503170734 | 13 | 124 | 12.9 | 24.1 | 0.00 | 0.00 | 0.00 | 58 | 1008.6 |
| 20260503170234 | 13 | 174 | 11.3 | 25.7 | 0.00 | 0.00 | 0.00 | 58 | 1008.8 |
| 20260503150725 | 14 | 181 | 12.9 | 29.0 | 0.00 | 0.00 | 0.00 | 53 | 1009.8 |
| 20260503150225 | 14 | 197 | 12.9 | 29.0 | 0.00 | 0.00 | 0.00 | 51 | 1009.9 |
| 20260503140220 | 13 | 251 | 14.5 | 22.5 | 0.00 | 0.00 | 0.00 | 53 | 1010.5 |
| 20260503131218 | 11 | 240 | 8.0 | 17.7 | 0.00 | 0.00 | 0.00 | 55 | 1010.9 |
| 20260503130718 | 11 | 254 | 9.7 | 17.7 | 0.00 | 0.00 | 0.00 | 54 | 1010.9 |
| 20260503130219 | 11 | 252 | 11.3 | 24.1 | 0.00 | 0.00 | 0.00 | 54 | 1010.9 |
| 20260503120215 | 10 | 184 | 8.0 | 16.1 | 0.00 | 0.00 | 0.00 | 53 | 1011.1 |
| 20260503110714 | 9 | 260 | 8.0 | 19.3 | 0.00 | 0.00 | 0.00 | 52 | 1010.8 |
| 20260503110216 | 9 | 204 | 6.4 | 19.3 | 0.00 | 0.00 | 0.00 | 52 | 1010.9 |
| 20260503100207 | 9 | 242 | 9.7 | 14.5 | 0.00 | 0.00 | 0.00 | 52 | 1011.2 |
| 20260503090156 | 9 | 217 | 9.7 | 17.7 | 0.00 | 0.00 | 0.00 | 49 | 1011.7 |
| 20260503081422 | 10 | 210 | 9.7 | 16.1 | 0.00 | 0.00 | 0.00 | 49 | 1012.1 |
| 20260503080656 | 10 | 176 | 8.0 | 14.5 | 0.00 | 0.00 | 0.00 | 49 | 1012.2 |
| 20260503080156 | 10 | 201 | 8.0 | 14.5 | 0.00 | 0.00 | 0.00 | 49 | 1012.2 |
| 20260503072645 | 9 | 203 | 8.0 | 16.1 | 0.00 | 0.00 | 0.00 | 49 | 1012.3 |
| 20260503072141 | 9 | 235 | 9.7 | 16.1 | 0.00 | 0.00 | 0.00 | 49 | 1012.4 |
| 20260503071636 | 9 | 262 | 8.0 | 16.1 | 0.00 | 0.00 | 0.00 | 49 | 1012.3 |
| 20260503071134 | 9 | 202 | 8.0 | 14.5 | 0.00 | 0.00 | 0.00 | 49 | 1012.4 |
| 20260503070859 | 9 | 246 | 9.7 | 17.7 | 0.00 | 0.00 | 0.00 | 50 | 1012.5 |
| 20260503070134 | 9 | 180 | 9.7 | 17.7 | 0.00 | 0.00 | 0.00 | 49 | 1012.5 |
| 20260503060134 | 9 | 217 | 6.4 | 14.5 | 0.00 | 0.00 | 0.00 | 50 | 1013.0 |
| 20260503054633 | 8 | 204 | 6.4 | 11.3 | 0.00 | 0.00 | 0.00 | 51 | 1013.1 |
| 20260503054133 | 8 | 192 | 6.4 | 12.9 | 0.00 | 0.00 | 0.00 | 52 | 1013.1 |
| 20260503053852 | 8 | 173 | 6.4 | 14.5 | 0.00 | 0.00 | 0.00 | 52 | 1013.2 |
| 20260503053132 | 8 | 183 | 6.4 | 16.1 | 0.00 | 0.00 | 0.00 | 51 | 1013.2 |
| 20260503052851 | 8 | 198 | 6.4 | 16.1 | 0.00 | 0.00 | 0.00 | 52 | 1013.2 |
| 20260503052404 | 8 | 168 | 6.4 | 14.5 | 0.00 | 0.00 | 0.00 | 52 | 1013.2 |
| 20260503051633 | 8 | 157 | 4.8 | 14.5 | 0.00 | 0.00 | 0.00 | 53 | 1013.3 |
| 20260503051129 | 8 | 210 | 4.8 | 9.7 | 0.00 | 0.00 | 0.00 | 55 | 1013.3 |
| 20260503050629 | 8 | 268 | 4.8 | 9.7 | 0.00 | 0.00 | 0.00 | 56 | 1013.4 |
| 20260503050129 | 7 | 188 | 4.8 | 9.7 | 0.00 | 0.00 | 0.00 | 57 | 1013.4 |
| 20260503045629 | 7 | 170 | 4.8 | 9.7 | 0.00 | 0.00 | 0.00 | 58 | 1013.4 |
| 20260503045129 | 7 | 264 | 4.8 | 9.7 | 0.00 | 0.00 | 0.00 | 62 | 1013.4 |
| 20260503044856 | 7 | 163 | 4.8 | 8.0 | 0.00 | 0.00 | 0.00 | 63 | 1013.5 |
| 20260503044354 | 7 | 173 | 4.8 | 8.0 | 0.00 | 0.00 | 0.00 | 64 | 1013.5 |
| 20260503043629 | 6 | 176 | 3.2 | 6.4 | 0.00 | 0.00 | 0.00 | 67 | 1013.5 |
| 20260503043129 | 6 | 163 | 3.2 | 8.0 | 0.00 | 0.00 | 0.00 | 68 | 1013.6 |
| 20260503042630 | 6 | 163 | 4.8 | 8.0 | 0.00 | 0.00 | 0.00 | 69 | 1013.6 |
| 20260503042129 | 5 | 171 | 4.8 | 8.0 | 0.00 | 0.00 | 0.00 | 70 | 1013.7 |
| 20260503041629 | 5 | 180 | 3.2 | 6.4 | 0.00 | 0.00 | 0.00 | 75 | 1013.7 |
| 20260503041127 | 5 | 196 | 3.2 | 4.8 | 0.00 | 0.00 | 0.00 | 77 | 1013.8 |
| 20260503040623 | 4 | 201 | 1.6 | 4.8 | 0.00 | 0.00 | 0.00 | 79 | 1013.8 |
| 20260503040124 | 4 | 190 | 1.6 | 3.2 | 0.00 | 0.00 | 0.00 | 79 | 1013.8 |
| 20260503035627 | 4 | 139 | 1.6 | 3.2 | 0.00 | 0.00 | 0.00 | 78 | 1013.9 |
| 20260503035125 | 4 | 275 | 1.6 | 3.2 | 0.00 | 0.00 | 0.00 | 77 | 1013.9 |
| 20260503034626 | 5 | 178 | 1.6 | 3.2 | 0.00 | 0.00 | 0.00 | 76 | 1013.9 |
| 20260503034125 | 5 | 275 | 1.6 | 3.2 | 0.00 | 0.00 | 0.00 | 76 | 1014.0 |
| 20260503033626 | 5 | 171 | 3.2 | 3.2 | 0.00 | 0.00 | 0.00 | 75 | 1014.0 |
| 20260503033125 | 5 | 184 | 3.2 | 6.4 | 0.00 | 0.00 | 0.00 | 73 | 1014.0 |
| 20260503032835 | 6 | 115 | 4.8 | 8.0 | 0.00 | 0.00 | 0.00 | 71 | 1014.1 |
| 20260503032716 | 6 | 189 | 4.8 | 8.0 | 0.00 | 0.00 | 0.00 | 72 | 1014.1 |
| 20260503031623 | 6 | 179 | 4.8 | 8.0 | 0.00 | 0.00 | 0.00 | 71 | 1014.1 |
| 20260503031123 | 6 | 152 | 4.8 | 8.0 | 0.00 | 0.00 | 0.00 | 71 | 1014.2 |
| 20260503030623 | 6 | 159 | 4.8 | 6.4 | 0.00 | 0.00 | 0.00 | 71 | 1014.3 |
| 20260503030123 | 6 | 164 | 4.8 | 6.4 | 0.00 | 0.00 | 0.00 | 71 | 1014.3 |
| 20260503025623 | 6 | 163 | 4.8 | 9.7 | 0.00 | 0.00 | 0.00 | 70 | 1014.4 |
| 20260503025124 | 6 | 155 | 6.4 | 9.7 | 0.00 | 0.00 | 0.00 | 69 | 1014.4 |
| 20260503025108 | 6 | 155 | 6.4 | 9.7 | 0.00 | 0.00 | 0.00 | 69 | 1014.4 |
| 20260503024124 | 6 | 146 | 6.4 | 9.7 | 0.00 | 0.00 | 0.00 | 68 | 1014.4 |
| 20260503023623 | 6 | 144 | 6.4 | 9.7 | 0.00 | 0.00 | 0.00 | 68 | 1014.4 |
| 20260503023124 | 6 | 144 | 4.8 | 9.7 | 0.00 | 0.00 | 0.00 | 68 | 1014.4 |
| 20260503022624 | 6 | 151 | 4.8 | 8.0 | 0.00 | 0.00 | 0.00 | 68 | 1014.4 |
| 20260503022124 | 6 | 150 | 3.2 | 8.0 | 0.00 | 0.00 | 0.00 | 68 | 1014.4 |
| 20260503021626 | 6 | 356 | 3.2 | 6.4 | 0.00 | 0.00 | 0.00 | 68 | 1014.4 |
| 20260503021119 | 7 | 196 | 4.8 | 9.7 | 0.00 | 0.00 | 0.00 | 67 | 1014.4 |
| 20260503020622 | 7 | 160 | 6.4 | 9.7 | 0.00 | 0.00 | 0.00 | 65 | 1014.4 |
| 20260503020119 | 7 | 187 | 6.4 | 9.7 | 0.00 | 0.00 | 0.00 | 65 | 1014.3 |
| 20260503015846 | 7 | 154 | 8.0 | 11.3 | 0.00 | 0.00 | 0.00 | 64 | 1014.3 |
| 20260503015120 | 7 | 150 | 8.0 | 11.3 | 0.00 | 0.00 | 0.00 | 64 | 1014.3 |
| 20260503014846 | 7 | 152 | 8.0 | 11.3 | 0.00 | 0.00 | 0.00 | 63 | 1014.2 |
| 20260503014120 | 7 | 151 | 8.0 | 11.3 | 0.00 | 0.00 | 0.00 | 63 | 1014.2 |
| 20260503013620 | 7 | 181 | 6.4 | 11.3 | 0.00 | 0.00 | 0.00 | 63 | 1014.2 |
| 20260503013120 | 7 | 175 | 6.4 | 11.3 | 0.00 | 0.00 | 0.00 | 62 | 1014.2 |
| 20260503012620 | 7 | 163 | 6.4 | 11.3 | 0.00 | 0.00 | 0.00 | 62 | 1014.2 |
| 20260503012121 | 8 | 142 | 6.4 | 9.7 | 0.00 | 0.00 | 0.00 | 62 | 1014.2 |
| 20260503011622 | 8 | 141 | 6.4 | 11.3 | 0.00 | 0.00 | 0.00 | 61 | 1014.2 |
| 20260503011121 | 8 | 146 | 6.4 | 11.3 | 0.00 | 0.00 | 0.00 | 61 | 1014.2 |
| 20260503010841 | 8 | 158 | 8.0 | 12.9 | 0.00 | 0.00 | 0.00 | 60 | 1014.2 |
| 20260503010121 | 8 | 153 | 8.0 | 14.5 | 0.00 | 0.00 | 0.00 | 59 | 1014.2 |
| 20260503005842 | 8 | 132 | 8.0 | 14.5 | 0.00 | 0.00 | 0.00 | 59 | 1014.2 |
| 20260503005119 | 8 | 125 | 8.0 | 14.5 | 0.00 | 0.00 | 0.00 | 58 | 1014.2 |
| 20260503004619 | 8 | 184 | 8.0 | 12.9 | 0.00 | 0.00 | 0.00 | 58 | 1014.2 |
| 20260503004120 | 8 | 294 | 8.0 | 14.5 | 0.00 | 0.00 | 0.00 | 57 | 1014.2 |
| 20260503003620 | 9 | 169 | 9.7 | 20.9 | 0.00 | 0.00 | 0.00 | 56 | 1014.2 |
| 20260503003119 | 9 | 181 | 9.7 | 20.9 | 0.00 | 0.00 | 0.00 | 55 | 1014.2 |
| 20260503002620 | 9 | 168 | 8.0 | 16.1 | 0.00 | 0.00 | 0.00 | 54 | 1014.2 |
| 20260503002119 | 9 | 145 | 9.7 | 16.1 | 0.00 | 0.00 | 0.00 | 54 | 1014.3 |
| 20260503001619 | 10 | 182 | 9.7 | 17.7 | 0.00 | 0.00 | 0.00 | 53 | 1014.3 |
| 20260503001333 | 10 | 154 | 11.3 | 17.7 | 0.00 | 0.00 | 0.00 | 52 | 1014.3 |
| 20260503000614 | 10 | 135 | 11.3 | 17.7 | 0.00 | 0.00 | 0.00 | 52 | 1014.3 |
| 20260503000114 | 10 | 139 | 9.7 | 17.7 | 0.00 | 0.00 | 0.00 | 51 | 1014.4 |
| 20260502235938 | 10 | 119 | 9.7 | 17.7 | 0.00 | 0.00 | 0.00 | 51 | 1014.3 |
| 20260502235900 | 10 | 303 | 11.3 | 17.7 | 0.00 | 0.00 | 0.00 | 51 | 1014.4 |
| 20260502234616 | 10 | 125 | 9.7 | 16.1 | 0.00 | 0.00 | 0.00 | 50 | 1014.4 |
| 20260502234114 | 10 | 127 | 9.7 | 16.1 | 0.00 | 0.00 | 0.00 | 51 | 1014.5 |
| 20260502233615 | 10 | 127 | 9.7 | 16.1 | 0.00 | 0.00 | 0.00 | 50 | 1014.6 |
| 20260502233114 | 10 | 193 | 9.7 | 16.1 | 0.00 | 0.00 | 0.00 | 49 | 1014.6 |
| 20260502232615 | 10 | 145 | 11.3 | 19.3 | 0.00 | 0.00 | 0.00 | 49 | 1014.7 |
| 20260502232115 | 10 | 149 | 11.3 | 19.3 | 0.00 | 0.00 | 0.00 | 49 | 1014.7 |
| 20260502231610 | 10 | 132 | 9.7 | 19.3 | 0.00 | 0.00 | 0.00 | 49 | 1014.7 |
| 20260502231111 | 11 | 124 | 11.3 | 20.9 | 0.00 | 0.00 | 0.00 | 48 | 1014.7 |
| 20260502230613 | 11 | 141 | 11.3 | 20.9 | 0.00 | 0.00 | 0.00 | 48 | 1014.6 |
| 20260502230114 | 10 | 141 | 9.7 | 14.5 | 0.00 | 0.00 | 0.00 | 49 | 1014.8 |
| 20260502225612 | 10 | 181 | 9.7 | 14.5 | 0.00 | 0.00 | 0.00 | 49 | 1014.9 |
| 20260502225112 | 10 | 124 | 9.7 | 17.7 | 0.00 | 0.00 | 0.00 | 49 | 1014.9 |
| 20260502224614 | 10 | 165 | 9.7 | 17.7 | 0.00 | 0.00 | 0.00 | 49 | 1015.0 |
| 20260502224115 | 11 | 116 | 8.0 | 17.7 | 0.00 | 0.00 | 0.00 | 47 | 1014.9 |
| 20260502223612 | 10 | 111 | 9.7 | 20.9 | 0.00 | 0.00 | 0.00 | 49 | 1015.0 |
| 20260502223113 | 10 | 127 | 9.7 | 20.9 | 0.00 | 0.00 | 0.00 | 49 | 1015.1 |
| 20260502222614 | 10 | 155 | 11.3 | 19.3 | 0.00 | 0.00 | 0.00 | 48 | 1015.1 |
| 20260502222113 | 10 | 131 | 11.3 | 19.3 | 0.00 | 0.00 | 0.00 | 48 | 1015.1 |
| 20260502221610 | 11 | 141 | 11.3 | 19.3 | 0.00 | 0.00 | 0.00 | 49 | 1015.0 |
| 20260502221106 | 11 | 125 | 9.7 | 17.7 | 0.00 | 0.00 | 0.00 | 48 | 1015.1 |